Content
SEND FEEDBACK

Daily
Averages
Monthly
Summary
United States of America

MERIZO, GUAM


Home > North America > United States > Guam
Elevation: 10 feet     Latitude: 13 14N     Longitude: 144 39E

WEATHER
 
SELECT A DAY
Number of Records: 341,524;   Date Range: 1/1/95 - 7/7/14
 
SHARE

PRINT THIS DATA

[ ← Previous Day ]
WEATHER ALMANAC - MAY 23, 2013
[ Next Day → ]
[ °C ]   °F
Weather ElementAverageHighLow
Temperature82.2 °F86.4 °F (12:55 pm)78.4 °F (4:55 am)
Dewpoint75.5 °F77 °F (9:48 am)73.8 °F (4:55 am)
Humidity80.4 %89 % (12:07 am)70 % (12:55 pm)
Barometer29.86 in29.90 in (8:51 am)29.81 in (3:55 pm)
Wind Speed9.4 mph12.7 mph (10:55 am)
Weather ElementAverage
Visibility10 mi
Wind DirectionE (85 °)

Weather ElementTotal
Precipitation0.01 in
Cooling Degree Days17.4 (Base 65)
Growing Degree Days32.4 (Base 50)
Averaged from 44 records on May 23, 2013
WEATHER CONDITIONS BREAKOUT
WIND DIRECTION BREAKOUT
WEATHER BY HOUR - MAY 23, 2013
[ °C ]   °F
Local TimeTemperatureDewpointHumidityBarometerVisibilityWind DirectionWind SpeedGust SpeedPrecipitationEventsConditions
12:07 AM78.8 °F75.2 °F89 %29.87 in10.0 miEast (80°)9.2 mphMostly Cloudy
12:55 AM79.2 °F75.6 °F89 %29.85 in10.0 miEast (90°)10.4 mphPartly Cloudy
1:55 AM79.2 °F75.4 °F88 %29.84 in10.0 miEast (100°)9.2 mphClear
2:55 AM79.2 °F74.5 °F86 %29.83 in10.0 miEast (100°)8.1 mphClear
3:14 AM78.8 °F75.2 °F89 %29.83 in10.0 miEast (80°)9.2 mphMostly Cloudy
3:22 AM78.8 °F75.2 °F89 %29.83 in8.0 miEast (80°)9.2 mphRainLight Rain
3:31 AM78.8 °F75.2 °F89 %29.83 in10.0 miEast (80°)9.2 mphMostly Cloudy
3:43 AM78.8 °F75.2 °F89 %29.83 in10.0 miEast (90°)6.9 mphMostly Cloudy
3:48 AM78.8 °F75.2 °F89 %29.83 in10.0 miEast (80°)6.9 mphScattered Clouds
3:55 AM79.0 °F75.0 °F88 %29.83 in10.0 miEast (80°)8.1 mph0.01 inScattered Clouds
4:55 AM78.4 °F73.8 °F85 %29.85 in10.0 miEast (80°)9.2 mphClear
5:55 AM79.0 °F74.5 °F86 %29.86 in10.0 miEast (80°)8.1 mphPartly Cloudy
6:55 AM80.4 °F75.2 °F84 %29.88 in10.0 miEast (80°)10.4 mphClear
7:55 AM82.9 °F75.6 °F78 %29.89 in10.0 miENE (60°)8.1 mphPartly Cloudy
8:41 AM84.2 °F75.2 °F74 %29.89 in10.0 miESE (110°)9.2 mphMostly Cloudy
8:51 AM84.2 °F75.2 °F74 %29.90 in10.0 miEast (80°)10.4 mphScattered Clouds
8:53 AM84.2 °F75.2 °F74 %29.90 in10.0 miEast (90°)9.2 mphMostly Cloudy
8:55 AM83.5 °F75.6 °F77 %29.90 in10.0 miEast (90°)9.2 mphMostly Cloudy
9:07 AM84.2 °F75.2 °F74 %29.90 in10.0 miEast (90°)9.2 mphScattered Clouds
9:10 AM84.2 °F75.2 °F74 %29.90 in10.0 miEast (90°)10.4 mphMostly Cloudy
9:12 AM84.2 °F75.2 °F74 %29.90 in10.0 miEast (90°)10.4 mphScattered Clouds
9:48 AM84.2 °F77.0 °F79 %29.89 in10.0 miEast (90°)11.5 mphMostly Cloudy
9:55 AM84.0 °F75.9 °F76 %29.89 in10.0 miEast (90°)11.5 mphMostly Cloudy
10:32 AM84.2 °F77.0 °F79 %29.89 in10.0 miEast (90°)10.4 mphMostly Cloudy
10:54 AM84.2 °F77.0 °F79 %29.88 in10.0 miENE (70°)11.5 mphMostly Cloudy
10:55 AM84.7 °F76.3 °F76 %29.88 in10.0 miEast (80°)12.7 mphMostly Cloudy
11:25 AM86.0 °F77.0 °F74 %29.87 in10.0 miEast (80°)12.7 mphScattered Clouds
11:55 AM86.2 °F76.3 °F72 %29.86 in10.0 miEast (90°)12.7 mphPartly Cloudy
12:55 PM86.4 °F75.6 °F70 %29.85 in10.0 miEast (100°)9.2 mphClear
1:31 PM86.0 °F77.0 °F74 %29.84 in10.0 miEast (90°)6.9 mphMostly Cloudy
1:55 PM84.6 °F76.1 °F76 %29.83 in10.0 miEast (90°)10.4 mphMostly Cloudy
2:52 PM84.2 °F75.2 °F74 %29.82 in10.0 miEast (90°)9.2 mphScattered Clouds
2:55 PM84.7 °F75.6 °F74 %29.82 in10.0 miEast (90°)9.2 mphScattered Clouds
3:55 PM85.5 °F75.0 °F71 %29.81 in10.0 miESE (110°)8.1 mphClear
4:55 PM85.1 °F75.6 °F73 %29.82 in10.0 miEast (80°)9.2 mphPartly Cloudy
5:55 PM82.6 °F75.7 °F80 %29.83 in10.0 miENE (60°)8.1 mphPartly Cloudy
6:55 PM80.8 °F75.0 °F83 %29.85 in10.0 miENE (60°)8.1 mphPartly Cloudy
7:55 PM80.6 °F75.6 °F85 %29.85 in10.0 miENE (60°)10.4 mphScattered Clouds
8:55 PM80.1 °F75.2 °F85 %29.87 in10.0 miENE (60°)8.1 mphClear
9:52 PM80.6 °F75.2 °F84 %29.88 in10.0 miEast (90°)8.1 mphMostly Cloudy
9:55 PM80.6 °F75.0 °F83 %29.88 in10.0 miEast (90°)9.2 mphMostly Cloudy
9:57 PM80.6 °F75.2 °F84 %29.88 in10.0 miEast (90°)6.9 mphScattered Clouds
10:55 PM80.2 °F75.0 °F84 %29.88 in10.0 miEast (90°)9.2 mphPartly Cloudy
11:55 PM80.1 °F75.2 °F85 %29.87 in10.0 miEast (100°)8.1 mphScattered Clouds
Hourly data recorded from PGUA, located miles away from Merizo, Guam







STORIES FROM OUR PARTNERS